COSMOS 2135

导读 | 星芒AI

COSMOS 2135 是一颗由俄罗斯发射的军用通信卫星,于1991年9月24日使用质子-K火箭从拜科努尔航天发射场发射升空。该卫星属于俄罗斯的军事通信系统,旨在提供安全的战术和战略通信能力。其具体任务细节和轨道参数未完全公开,但据信运行在中地球轨道。COSMOS 2135 在俄罗斯国防通信网络中发挥了重要作用,体现了冷战后期至后冷战时期苏联/俄罗斯在空间通信领域的持续发展。

基本信息
目录编号:
21130
目录名称:
COSMOS 2135
国际标识:
1991-013A
轨道中心:
EARTH
卫星名称:
COSMOS 2135
卫星全名:
--
卫星状态:
在轨 (已飞行12664 天)
发射日期:
1991-02-26 UTC
国别 :
俄罗斯(独联体) (CIS)
星等 :
--
轨道信息
数据来源 国际轨道数据
星历时间: 2025-10-28T20:28:02+0800
18小时前
查看轨道信息
半长轴: 7346.374km
偏心率: 0.0066842
轨道倾角: 82.832°
近地点辐角 130.201°
升交点赤经 32.189°
平近点角 230.503°
近地点: 919.134km
远地点: 1017.344km
周期: 104.441分钟
每日圈数: 13.787746
详细信息
使用方式:
暂无
2D轨道图
3D轨道图
轨道高度分析图
轨道倾角分析图
轨道综合分析图
查看轨道综合分析图